カタログに戻る

FREGAT R/B

運用中HEO
NORAD 45359·ROCKET BODY·🇷🇺 Russia

打ち上げ Mar 16, 2020 から Plesetsk Cosmodrome

Loading…

次のパス (今後24時間)

TLE

最新Source: Space-Track

元期: Sep 14, 2026, 06:20 UTC

1 45359U 20018B   26257.26435972 -.00000059  00000-0  00000-0 0  9992
2 45359  64.3207 313.4171 0057257 137.9749 222.5379  2.07974582 49339

AllMySatでFREGAT R/Bをリアルタイム追跡

Download on the App Store